TimeCDT,TemperatureF,Dew PointF,Humidity,Sea Level PressureIn,VisibilityMPH,Wind Direction,Wind SpeedMPH,Gust SpeedMPH,PrecipitationIn,Events,Conditions,WindDirDegrees,DateUTC
12:15 AM,34.2,30.0,85,29.77,10.0,North,23.0,28.8,N/A,,Overcast,350,2014-03-19 05:15:00
12:35 AM,33.6,29.5,85,29.78,10.0,NNW,20.7,28.8,N/A,,Overcast,340,2014-03-19 05:35:00
12:55 AM,32.9,29.3,87,29.79,10.0,NNW,21.9,28.8,N/A,,Overcast,340,2014-03-19 05:55:00
1:15 AM,32.5,29.1,87,29.80,10.0,NNW,17.3,26.5,N/A,,Overcast,340,2014-03-19 06:15:00
1:35 AM,32.4,29.1,88,29.81,10.0,NNW,21.9,28.8,N/A,,Overcast,340,2014-03-19 06:35:00
1:55 AM,32.0,29.3,90,29.81,5.0,NNW,19.6,29.9,N/A,Snow,Light Snow,340,2014-03-19 06:55:00
2:15 AM,32.0,29.8,92,29.82,4.0,NNW,20.7,25.3,N/A,Snow,Light Snow,340,2014-03-19 07:15:00
2:35 AM,32.0,30.0,92,29.83,4.0,NNW,23.0,29.9,N/A,Snow,Light Snow,340,2014-03-19 07:35:00
2:55 AM,32.0,30.0,92,29.84,4.0,NNW,24.2,28.8,N/A,Snow,Light Snow,340,2014-03-19 07:55:00
3:15 AM,32.4,30.2,92,29.85,4.0,NNW,20.7,28.8,N/A,Snow,Light Snow,340,2014-03-19 08:15:00
3:35 AM,33.1,30.4,90,29.86,7.0,North,17.3,25.3,N/A,,Overcast,350,2014-03-19 08:35:00
3:55 AM,34.0,30.7,88,29.87,7.0,NNW,18.4,25.3,N/A,,Overcast,340,2014-03-19 08:55:00
4:15 AM,33.8,31.6,92,29.89,5.0,NNW,21.9,28.8,N/A,,Overcast,330,2014-03-19 09:15:00
4:35 AM,33.8,31.6,92,29.90,5.0,NNW,19.6,27.6,N/A,,Overcast,340,2014-03-19 09:35:00
4:55 AM,34.0,30.9,89,29.92,7.0,NNW,21.9,28.8,N/A,,Overcast,330,2014-03-19 09:55:00
5:15 AM,33.8,30.4,87,29.93,10.0,NNW,21.9,29.9,N/A,,Overcast,330,2014-03-19 10:15:00
5:35 AM,33.4,29.3,85,29.95,10.0,North,25.3,32.2,N/A,,Overcast,350,2014-03-19 10:35:00
5:55 AM,33.4,29.3,85,29.96,10.0,NNW,15.0,26.5,N/A,,Overcast,340,2014-03-19 10:55:00
6:15 AM,33.4,28.9,84,29.97,10.0,NNW,17.3,27.6,N/A,,Overcast,340,2014-03-19 11:15:00
6:35 AM,33.6,28.4,81,29.97,10.0,NNW,18.4,24.2,N/A,,Overcast,340,2014-03-19 11:35:00
6:55 AM,33.4,28.8,83,29.99,10.0,NNW,15.0,-,N/A,,Overcast,330,2014-03-19 11:55:00
7:15 AM,32.9,28.4,84,29.99,10.0,NW,15.0,-,N/A,,Overcast,320,2014-03-19 12:15:00
7:35 AM,32.9,27.9,82,30.01,10.0,NNW,15.0,-,N/A,,Overcast,330,2014-03-19 12:35:00
7:55 AM,32.9,27.5,81,30.01,10.0,NNW,15.0,-,N/A,,Overcast,330,2014-03-19 12:55:00
8:15 AM,32.9,27.3,80,30.02,10.0,NNW,19.6,23.0,N/A,,Overcast,330,2014-03-19 13:15:00
8:35 AM,32.9,27.0,79,30.04,10.0,NW,17.3,21.9,N/A,,Overcast,320,2014-03-19 13:35:00
8:55 AM,32.9,27.0,79,30.04,10.0,NNW,13.8,19.6,N/A,,Overcast,330,2014-03-19 13:55:00
9:15 AM,32.5,26.8,79,30.06,10.0,NW,13.8,20.7,N/A,,Overcast,320,2014-03-19 14:15:00
9:35 AM,33.6,26.6,75,30.07,10.0,NW,15.0,24.2,N/A,,Mostly Cloudy,320,2014-03-19 14:35:00
9:55 AM,35.8,27.5,72,30.07,10.0,NW,15.0,18.4,N/A,,Mostly Cloudy,320,2014-03-19 14:55:00
10:15 AM,36.5,27.0,68,30.07,10.0,NW,15.0,-,N/A,,Scattered Clouds,320,2014-03-19 15:15:00
10:35 AM,37.2,27.0,66,30.09,10.0,NW,13.8,-,N/A,,Clear,320,2014-03-19 15:35:00
10:55 AM,37.9,26.8,64,30.09,10.0,NNW,13.8,19.6,N/A,,Clear,330,2014-03-19 15:55:00
11:15 AM,39.0,26.8,62,30.10,10.0,NNW,13.8,18.4,N/A,,Scattered Clouds,330,2014-03-19 16:15:00
11:35 AM,40.3,26.4,58,30.11,10.0,NNW,16.1,21.9,N/A,,Scattered Clouds,330,2014-03-19 16:35:00
11:55 AM,41.2,26.6,56,30.11,10.0,NW,13.8,24.2,N/A,,Scattered Clouds,320,2014-03-19 16:55:00
12:15 PM,43.5,25.7,50,30.11,10.0,NNW,17.3,23.0,N/A,,Clear,330,2014-03-19 17:15:00
12:35 PM,43.5,25.7,50,30.10,10.0,NNW,11.5,-,N/A,,Scattered Clouds,340,2014-03-19 17:35:00
12:55 PM,45.1,25.3,46,30.10,10.0,NW,16.1,25.3,N/A,,Clear,310,2014-03-19 17:55:00
1:15 PM,45.5,24.8,44,30.10,10.0,NNW,16.1,20.7,N/A,,Clear,330,2014-03-19 18:15:00
1:35 PM,46.4,24.6,42,30.10,10.0,NNW,12.7,25.3,N/A,,Clear,330,2014-03-19 18:35:00
1:55 PM,47.3,23.4,39,30.10,10.0,NW,17.3,21.9,N/A,,Scattered Clouds,310,2014-03-19 18:55:00
2:15 PM,48.0,23.2,38,30.10,10.0,NW,12.7,17.3,N/A,,Clear,310,2014-03-19 19:15:00
2:35 PM,49.8,21.7,33,30.09,10.0,WNW,15.0,23.0,N/A,,Clear,300,2014-03-19 19:35:00
2:55 PM,50.0,21.9,33,30.08,10.0,WNW,19.6,26.5,N/A,,Clear,300,2014-03-19 19:55:00
3:15 PM,50.0,23.0,35,30.08,10.0,WNW,13.8,21.9,N/A,,Clear,300,2014-03-19 20:15:00
3:35 PM,51.6,24.4,35,30.07,10.0,NW,11.5,19.6,N/A,,Clear,320,2014-03-19 20:35:00
3:55 PM,51.3,24.6,35,30.07,10.0,WNW,13.8,20.7,N/A,,Clear,290,2014-03-19 20:55:00
4:15 PM,51.8,25.0,35,30.06,10.0,WNW,15.0,24.2,N/A,,Scattered Clouds,290,2014-03-19 21:15:00
4:35 PM,52.3,24.4,34,30.06,10.0,NW,16.1,20.7,N/A,,Scattered Clouds,310,2014-03-19 21:35:00
4:55 PM,51.4,24.6,35,30.06,10.0,WNW,16.1,24.2,N/A,,Scattered Clouds,300,2014-03-19 21:55:00
5:15 PM,51.1,25.3,37,30.06,10.0,NW,12.7,-,N/A,,Scattered Clouds,310,2014-03-19 22:15:00
5:35 PM,52.3,24.8,34,30.05,10.0,WNW,12.7,16.1,N/A,,Scattered Clouds,290,2014-03-19 22:35:00
5:55 PM,52.3,24.8,34,30.05,10.0,WNW,13.8,-,N/A,,Clear,300,2014-03-19 22:55:00
6:15 PM,52.3,25.3,35,30.06,10.0,WNW,12.7,-,N/A,,Scattered Clouds,290,2014-03-19 23:15:00
6:35 PM,50.9,25.0,36,30.06,10.0,West,11.5,-,N/A,,Mostly Cloudy,270,2014-03-19 23:35:00
6:55 PM,50.0,24.8,37,30.07,10.0,West,6.9,-,N/A,,Overcast,270,2014-03-19 23:55:00
7:15 PM,48.4,24.6,39,30.07,10.0,West,6.9,-,N/A,,Scattered Clouds,280,2014-03-20 00:15:00
7:35 PM,46.6,24.4,42,30.07,10.0,WNW,4.6,-,N/A,,Clear,300,2014-03-20 00:35:00
7:55 PM,45.3,24.4,44,30.06,10.0,Calm,Calm,-,N/A,,Scattered Clouds,0,2014-03-20 00:55:00
8:15 PM,46.4,24.6,42,30.07,10.0,Calm,Calm,-,N/A,,Scattered Clouds,0,2014-03-20 01:15:00
8:35 PM,46.6,24.3,42,30.06,10.0,Calm,Calm,-,N/A,,Clear,0,2014-03-20 01:35:00
8:55 PM,46.6,24.8,43,30.06,10.0,Calm,Calm,-,N/A,,Clear,0,2014-03-20 01:55:00
9:15 PM,42.1,24.3,49,30.07,10.0,Calm,Calm,-,N/A,,Clear,0,2014-03-20 02:15:00
9:35 PM,43.2,24.4,48,30.06,10.0,South,3.5,-,N/A,,Clear,170,2014-03-20 02:35:00
9:55 PM,40.6,24.6,53,30.06,10.0,South,4.6,-,N/A,,Clear,190,2014-03-20 02:55:00
10:15 PM,40.1,24.4,54,30.07,10.0,SSW,4.6,-,N/A,,Clear,200,2014-03-20 03:15:00
10:35 PM,40.5,24.4,53,30.06,10.0,SSW,4.6,-,N/A,,Clear,210,2014-03-20 03:35:00
10:55 PM,39.6,24.4,55,30.06,10.0,SSW,4.6,-,N/A,,Clear,210,2014-03-20 03:55:00
11:15 PM,36.9,23.9,59,30.06,10.0,SSW,5.8,-,N/A,,Clear,210,2014-03-20 04:15:00
11:35 PM,36.0,23.9,62,30.06,10.0,SW,6.9,-,N/A,,Clear,220,2014-03-20 04:35:00
11:55 PM,36.0,24.8,64,30.05,10.0,SW,6.9,-,N/A,,Clear,220,2014-03-20 04:55:00